FW5443 Weather Reports


time (UTC)temp
F
wind
direction
speed
knots
gust
knots
rain 1hr
in
rain 24hr
in
rain mn
in
humidity
%
barometer
mb
20260508005029 55 0 0.0 1.7 0.00 0.01 0.01 43 1007.5
20260508004551 55 320 0.0 2.6 0.00 0.01 0.01 42 1007.3
20260508004028 55 0 0.0 2.6 0.00 0.01 0.01 43 1007.3
20260508003529 55 26 0.0 1.7 0.00 0.01 0.01 43 1007.2
20260508003043 56 0 0.0 4.3 0.00 0.01 0.01 42 1007.3
20260508002530 56 63 0.0 4.3 0.00 0.01 0.01 41 1007.0
20260508002030 56 290 0.0 3.5 0.00 0.01 0.01 40 1006.9
20260508001546 56 0 0.0 3.5 0.00 0.01 0.01 40 1006.9
20260508001028 56 74 0.9 5.2 0.00 0.01 0.01 40 1006.8
20260508000530 57 0 0.0 5.2 0.00 0.01 0.01 40 1006.8
20260508000042 57 0 0.0 1.7 0.00 0.01 0.01 40 1006.8
20260507235531 57 155 0.0 4.3 0.00 0.01 0.01 41 1006.8
20260507235028 57 100 0.0 4.3 0.00 0.01 0.01 39 1006.7
20260507234538 58 28 0.0 4.3 0.00 0.01 0.01 38 1006.6
20260507234029 58 0 0.0 4.3 0.00 0.01 0.01 38 1006.6
20260507233529 58 0 0.9 4.3 0.00 0.01 0.01 39 1006.5
20260507233046 58 0 0.0 3.5 0.00 0.01 0.01 38 1006.5
20260507232528 58 79 0.0 3.5 0.00 0.01 0.01 37 1006.4
20260507232028 58 146 0.9 3.5 0.00 0.01 0.01 36 1006.4
20260507231545 59 153 0.9 3.5 0.00 0.01 0.01 37 1006.4
20260507231029 59 67 0.0 1.7 0.00 0.01 0.01 38 1006.4
20260507230529 59 0 0.0 3.5 0.00 0.01 0.01 37 1006.4
20260507230055 59 0 0.0 4.3 0.00 0.01 0.01 37 1006.2
20260507225529 59 330 0.9 4.3 0.00 0.01 0.01 36 1006.2
20260507225031 60 73 0.9 4.3 0.00 0.01 0.01 36 1006.2
20260507224542 60 101 0.9 4.3 0.00 0.01 0.01 36 1006.2
20260507224029 60 0 0.9 3.5 0.00 0.01 0.01 36 1006.1
20260507223528 60 254 0.0 4.3 0.00 0.01 0.01 36 1006.1
20260507223046 60 108 1.7 4.3 0.00 0.01 0.01 34 1006.0
20260507222530 60 78 0.9 3.5 0.00 0.01 0.01 36 1005.9
20260507222029 61 254 0.9 7.0 0.00 0.01 0.01 35 1005.9
20260507221545 61 69 0.9 7.0 0.00 0.01 0.01 34 1005.9
20260507221032 61 226 0.9 3.5 0.00 0.01 0.01 35 1005.8
20260507220533 61 0 0.0 8.7 0.00 0.01 0.01 36 1005.9
20260507220045 61 0 0.9 8.7 0.00 0.01 0.01 34 1005.8
20260507215530 61 51 0.9 5.2 0.00 0.01 0.01 35 1005.8
20260507215032 62 53 0.9 5.2 0.00 0.01 0.01 33 1005.7
20260507214548 62 74 0.9 5.2 0.00 0.01 0.01 35 1005.7
20260507214029 62 0 0.9 5.2 0.00 0.01 0.01 34 1005.6
20260507213529 62 272 0.9 5.2 0.00 0.01 0.01 33 1005.7
20260507213107 62 17 0.9 5.2 0.00 0.01 0.01 33 1005.6
20260507212529 62 60 1.7 5.2 0.00 0.01 0.01 33 1005.6
20260507212029 63 13 0.9 6.1 0.00 0.01 0.01 35 1005.4
20260507211546 63 52 1.7 6.1 0.00 0.01 0.01 34 1005.6
20260507211028 63 61 0.9 5.2 0.00 0.01 0.01 35 1005.4
20260507210533 63 140 1.7 6.1 0.00 0.01 0.01 34 1005.4
20260507210056 63 45 0.9 6.1 0.00 0.01 0.01 35 1005.5
20260507205529 63 76 1.7 5.2 0.00 0.01 0.01 35 1005.4
20260507205028 63 65 0.9 3.5 0.00 0.01 0.01 34 1005.4
20260507204542 63 243 0.9 5.2 0.00 0.01 0.01 35 1005.3
20260507204028 63 74 0.0 5.2 0.00 0.01 0.01 37 1005.5
20260507203532 63 81 0.9 5.2 0.00 0.01 0.01 34 1005.5
20260507203108 63 170 1.7 5.2 0.00 0.01 0.01 33 1005.5
20260507202535 63 13 1.7 3.5 0.00 0.01 0.01 34 1005.6
20260507202029 64 103 0.9 6.1 0.00 0.01 0.01 32 1005.5
20260507201545 64 232 0.9 6.1 0.00 0.01 0.01 33 1005.4
20260507201029 64 352 1.7 6.1 0.00 0.01 0.01 34 1005.5
20260507200531 64 60 1.7 6.1 0.00 0.01 0.01 33 1005.4
20260507200047 64 126 0.9 4.3 0.00 0.01 0.01 34 1005.6
20260507195536 64 40 0.9 4.3 0.00 0.01 0.01 32 1005.5
20260507195031 64 37 0.9 7.0 0.00 0.01 0.01 34 1005.6
20260507194548 64 227 0.9 7.0 0.00 0.01 0.01 31 1005.8
20260507194029 64 238 1.7 5.2 0.00 0.01 0.01 31 1005.7
20260507193529 64 349 0.9 8.7 0.00 0.01 0.01 32 1005.7
20260507193042 64 38 1.7 11.3 0.00 0.01 0.01 33 1005.7
20260507192529 64 175 1.7 11.3 0.00 0.01 0.01 31 1005.8
20260507192029 64 192 0.9 5.2 0.00 0.01 0.01 34 1005.8
20260507191549 64 53 0.9 5.2 0.00 0.01 0.01 31 1005.8
20260507191030 64 103 0.9 5.2 0.00 0.01 0.01 33 1005.9
20260507190529 64 207 0.9 4.3 0.00 0.01 0.01 33 1005.9
20260507190055 64 5 1.7 3.5 0.00 0.01 0.01 32 1005.9
20260507185529 65 0 0.9 3.5 0.00 0.01 0.01 35 1005.8
20260507185030 65 329 0.9 4.3 0.00 0.01 0.01 36 1006.0
20260507184544 64 42 0.9 4.3 0.00 0.01 0.01 34 1006.0
20260507184029 64 311 0.9 6.1 0.00 0.01 0.01 34 1006.1
20260507183528 64 0 1.7 8.7 0.00 0.01 0.01 33 1006.0
20260507183047 64 65 1.7 8.7 0.00 0.01 0.01 33 1006.0
20260507182531 64 238 0.9 3.5 0.00 0.01 0.01 34 1006.1
20260507182028 64 236 0.9 4.3 0.00 0.01 0.01 36 1006.2
20260507181543 64 46 1.7 4.3 0.00 0.01 0.01 38 1006.2
20260507181029 64 27 0.9 6.1 0.00 0.01 0.01 41 1006.3
20260507180528 63 64 1.7 6.1 0.00 0.01 0.01 34 1006.2
20260507180048 63 67 0.9 7.0 0.00 0.01 0.01 37 1006.5
20260507175536 63 170 1.7 7.0 0.00 0.01 0.01 35 1006.4
20260507175029 64 37 0.9 4.3 0.00 0.01 0.01 37 1006.5
20260507174547 63 261 0.9 6.1 0.00 0.01 0.01 39 1006.4
20260507174034 63 78 0.0 6.1 0.00 0.01 0.01 40 1006.3
20260507173532 63 169 1.7 6.1 0.00 0.01 0.01 40 1006.4
20260507173114 63 169 1.7 7.0 0.00 0.01 0.01 41 1006.4
20260507172529 63 360 1.7 7.0 0.00 0.01 0.01 39 1006.3
20260507172031 63 119 0.9 4.3 0.00 0.01 0.01 42 1006.5
20260507171543 63 94 1.7 4.3 0.00 0.01 0.01 43 1006.6
20260507171029 63 103 1.7 5.2 0.00 0.01 0.01 43 1006.5
20260507170529 63 65 0.9 6.1 0.00 0.01 0.01 44 1006.6
20260507170042 63 210 1.7 6.1 0.00 0.01 0.01 47 1006.7
20260507165530 62 108 0.9 5.2 0.00 0.01 0.01 49 1006.8
20260507165028 62 128 0.9 4.3 0.00 0.01 0.01 50 1006.8
20260507164541 63 72 1.7 4.3 0.00 0.01 0.01 47 1006.8
20260507164029 63 72 0.9 4.3 0.00 0.01 0.01 47 1006.8
20260507163531 62 62 0.9 4.3 0.00 0.01 0.01 49 1007.0
20260507163044 61 170 0.9 3.5 0.00 0.01 0.01 54 1006.9
20260507162535 61 115 0.0 7.8 0.00 0.01 0.01 54 1007.1
20260507162029 61 292 1.7 7.8 0.00 0.01 0.01 52 1007.2
20260507161549 62 163 0.9 5.2 0.00 0.01 0.01 54 1007.2
20260507161029 62 157 0.9 5.2 0.00 0.01 0.01 52 1007.1
20260507160529 62 0 0.9 4.3 0.00 0.01 0.01 53 1007.2
20260507160059 62 0 0.9 4.3 0.00 0.01 0.01 50 1007.2
20260507155532 62 36 0.0 3.5 0.00 0.01 0.01 59 1007.3
20260507155029 60 13 0.9 2.6 0.00 0.01 0.01 56 1007.4
20260507154550 61 49 0.9 2.6 0.00 0.01 0.01 56 1007.4
20260507154028 62 0 0.0 4.3 0.00 0.01 0.01 55 1007.4
20260507153532 63 64 0.9 6.1 0.00 0.01 0.01 53 1007.4
20260507153053 62 61 0.9 6.1 0.00 0.01 0.01 54 1007.4
20260507152528 62 54 0.0 5.2 0.00 0.01 0.01 53 1007.4
20260507152032 62 68 0.9 5.2 0.00 0.01 0.01 55 1007.6
20260507151544 62 349 0.9 2.6 0.00 0.01 0.01 55 1007.6
20260507151029 62 101 0.0 3.5 0.00 0.01 0.01 55 1007.6
20260507150529 62 150 0.9 3.5 0.00 0.01 0.01 53 1007.7
20260507150048 63 10 0.0 3.5 0.00 0.01 0.01 51 1007.6
20260507145529 64 350 0.9 3.5 0.00 0.01 0.01 53 1007.7
20260507145029 63 0 0.0 3.5 0.00 0.01 0.01 56 1007.8
20260507144541 62 141 0.0 4.3 0.00 0.01 0.01 55 1007.9
20260507144029 63 64 0.9 4.3 0.00 0.01 0.01 51 1008.1
20260507143530 63 49 0.9 3.5 0.00 0.01 0.01 51 1007.9
20260507143054 63 59 0.9 4.3 0.00 0.01 0.01 51 1007.9
20260507142529 63 78 0.9 4.3 0.00 0.01 0.01 52 1007.9
20260507142031 63 55 0.9 4.3 0.00 0.01 0.01 51 1008.1
20260507141550 62 200 0.9 4.3 0.00 0.01 0.01 50 1008.0
20260507141029 62 93 0.9 4.3 0.00 0.01 0.01 51 1008.0
20260507140532 62 290 0.9 4.3 0.00 0.01 0.01 53 1007.8
20260507140046 61 344 0.9 2.6 0.00 0.01 0.01 52 1008.0
20260507135531 61 46 0.9 3.5 0.00 0.01 0.01 50 1007.9
20260507135033 61 187 0.9 3.5 0.00 0.01 0.01 56 1007.8
20260507134546 61 98 0.9 2.6 0.00 0.01 0.01 52 1007.8
20260507134029 60 0 0.0 3.5 0.00 0.01 0.01 55 1007.8
20260507133529 60 0 0.0 3.5 0.00 0.01 0.01 58 1007.9
20260507133109 59 313 0.0 3.5 0.00 0.01 0.01 58 1008.0
20260507132534 58 45 0.9 4.3 0.00 0.01 0.01 59 1008.1
20260507132028 58 0 0.9 4.3 0.00 0.01 0.01 60 1008.1
20260507131545 57 59 0.0 2.6 0.00 0.01 0.01 62 1008.1
20260507131029 57 0 0.9 2.6 0.00 0.01 0.01 62 1008.1
20260507130532 56 143 0.0 6.1 0.00 0.01 0.01 64 1008.1
20260507130053 56 44 0.9 6.1 0.00 0.01 0.01 66 1008.2
20260507125529 55 0 0.9 5.2 0.00 0.01 0.01 67 1008.3
20260507125031 55 267 0.9 5.2 0.00 0.01 0.01 72 1008.3
20260507124550 54 352 0.9 4.3 0.00 0.01 0.01 75 1008.4
20260507124029 53 181 0.9 4.3 0.00 0.01 0.01 78 1008.3
20260507123536 52 0 0.9 2.6 0.00 0.01 0.01 80 1008.3
20260507123049 51 257 0.0 2.6 0.00 0.01 0.01 81 1008.3
20260507122529 51 0 0.9 2.6 0.00 0.01 0.01 82 1008.1
20260507122029 50 0 0.0 2.6 0.00 0.01 0.01 84 1008.4
20260507121544 50 0 0.0 3.5 0.00 0.01 0.01 86 1008.4
20260507121029 49 352 0.0 4.3 0.00 0.01 0.01 87 1008.3
20260507120547 49 49 0.9 4.3 0.00 0.01 0.01 88 1008.1
20260507120041 49 0 0.0 2.6 0.00 0.01 0.01 89 1008.2
20260507115529 49 0 0.0 2.6 0.00 0.01 0.01 89 1008.3
20260507115028 49 252 0.0 2.6 0.00 0.01 0.01 90 1008.3
20260507114555 48 331 0.0 1.7 0.00 0.01 0.01 90 1008.2
20260507114029 48 0 0.0 1.7 0.00 0.01 0.01 90 1008.1
20260507113529 49 0 0.0 1.7 0.00 0.01 0.01 90 1008.2
20260507113047 49 0 0.0 1.7 0.00 0.01 0.01 90 1008.2
20260507112529 49 0 0.0 1.7 0.00 0.01 0.01 90 1008.2
20260507112032 49 0 0.0 1.7 0.00 0.01 0.01 90 1008.3
20260507111546 49 0 0.0 1.7 0.01 0.01 0.01 90 1008.2
20260507111029 49 0 0.0 1.7 0.01 0.01 0.01 90 1008.1
20260507110529 49 0 0.0 0.9 0.01 0.01 0.01 90 1007.9
20260507110046 49 0 0.0 0.9 0.01 0.01 0.01 90 1008.2
20260507105529 49 0 0.0 0.9 0.01 0.01 0.01 90 1008.3
20260507105029 48 0 0.0 0.9 0.01 0.01 0.01 90 1008.5
20260507104541 48 0 0.0 0.9 0.01 0.01 0.01 90 1008.5
20260507104030 48 0 0.0 0.9 0.01 0.01 0.01 89 1008.4
20260507103532 48 0 0.0 0.9 0.01 0.01 0.01 89 1008.2
20260507103048 48 0 0.0 0.9 0.01 0.01 0.01 89 1007.8
20260507102529 48 0 0.0 0.9 0.01 0.01 0.01 89 1007.8
20260507102029 48 0 0.0 2.6 0.01 0.01 0.01 89 1007.5
20260507101549 48 0 0.0 2.6 0.00 0.00 0.00 89 1007.6
20260507101029 49 0 0.0 0.9 0.00 0.00 0.00 89 1007.7
20260507100529 49 0 0.0 0.9 0.00 0.00 0.00 88 1007.8
20260507100050 49 0 0.0 2.6 0.00 0.00 0.00 88 1007.5
20260507095532 49 0 0.0 2.6 0.00 0.00 0.00 88 1007.4
20260507095029 49 213 0.0 2.6 0.00 0.00 0.00 88 1007.4
20260507094554 49 22 0.0 2.6 0.00 0.00 0.00 88 1007.4
20260507094028 49 63 0.0 1.7 0.00 0.00 0.00 88 1007.4
20260507093529 49 0 0.0 0.9 0.00 0.00 0.00 88 1007.7
20260507093041 49 0 0.0 1.7 0.00 0.00 0.00 87 1007.8
20260507092528 50 0 0.0 4.3 0.00 0.00 0.00 87 1007.6
20260507092029 50 0 0.0 4.3 0.00 0.00 0.00 88 1007.5
20260507091540 50 0 0.0 1.7 0.00 0.00 0.00 88 1007.6
20260507091029 50 91 0.0 1.7 0.00 0.00 0.00 87 1007.8
20260507090531 50 0 0.0 1.7 0.00 0.00 0.00 87 1007.8
20260507090043 50 107 0.0 2.6 0.00 0.00 0.00 87 1007.9
20260507085529 51 0 0.0 2.6 0.00 0.00 0.00 87 1007.7
20260507085029 51 119 0.0 2.6 0.00 0.00 0.00 87 1007.6
20260507084544 51 50 0.0 2.6 0.00 0.00 0.00 88 1007.8
20260507084029 52 232 0.0 2.6 0.00 0.00 0.00 88 1007.7
20260507083529 52 0 0.0 0.9 0.00 0.00 0.00 88 1007.6
20260507083044 52 91 0.0 1.7 0.00 0.00 0.00 88 1007.5
20260507082528 52 0 0.0 1.7 0.00 0.00 0.00 87 1007.3
20260507082028 52 0 0.0 2.6 0.00 0.00 0.00 87 1007.1
20260507081542 52 0 0.0 2.6 0.00 0.00 0.00 87 1007.1
20260507081033 52 171 0.0 2.6 0.00 0.00 0.00 86 1007.1
20260507080529 53 0 0.0 2.6 0.00 0.00 0.00 86 1007.3
20260507080044 53 0 0.0 3.5 0.00 0.00 0.00 85 1007.5
20260507075529 53 0 0.0 3.5 0.00 0.00 0.00 85 1007.6
20260507075029 53 0 0.0 2.6 0.00 0.00 0.00 84 1007.4
20260507074547 53 0 0.0 2.6 0.00 0.00 0.00 84 1007.3
20260507074030 53 0 0.0 1.7 0.00 0.00 0.00 83 1007.6
20260507073529 53 0 0.0 1.7 0.00 0.00 0.00 83 1007.7
20260507073049 53 0 0.0 1.7 0.00 0.00 0.00 83 1007.3
20260507072529 53 0 0.0 1.7 0.00 0.00 0.00 83 1006.7
20260507072028 53 0 0.0 1.7 0.00 0.00 0.00 83 1006.6
20260507071543 53 0 0.0 1.7 0.00 0.00 0.00 83 1006.8
20260507071029 53 0 0.0 0.9 0.00 0.00 0.00 83 1006.8
20260507070530 53 0 0.0 0.9 0.00 0.00 0.00 83 1006.8
20260507070051 53 0 0.0 1.7 0.00 0.00 0.00 83 1007.0
20260507065533 53 0 0.0 2.6 0.00 0.00 0.00 83 1006.7
20260507065028 53 0 0.0 2.6 0.00 0.00 0.00 83 1006.7
20260507064546 53 150 0.0 3.5 0.00 0.00 0.00 84 1006.8
20260507064032 53 0 0.0 3.5 0.00 0.00 0.00 84 1006.8
20260507063530 53 360 0.9 3.5 0.00 0.00 0.00 84 1006.9
20260507063041 53 0 0.0 4.3 0.00 0.00 0.00 85 1006.7
20260507062529 54 15 0.0 4.3 0.00 0.00 0.00 85 1006.9
20260507062029 54 46 0.9 2.6 0.00 0.00 0.00 86 1006.7
20260507061544 55 35 0.0 3.5 0.00 0.00 0.00 88 1006.5
20260507061029 55 0 0.9 3.5 0.00 0.00 0.00 88 1006.6
20260507060529 55 0 0.0 3.5 0.00 0.00 0.00 88 1006.6
20260507060045 55 0 0.0 3.5 0.00 0.00 0.00 88 1006.6
20260507055526 55 360 0.0 1.7 0.00 0.00 0.00 88 1006.7
20260507055028 55 0 0.0 1.7 0.00 0.00 0.00 88 1006.8
20260507054541 55 0 0.0 2.6 0.00 0.00 0.00 88 1006.9
20260507054029 55 270 0.0 2.6 0.00 0.00 0.00 88 1006.9
20260507053530 55 306 0.0 3.5 0.00 0.00 0.00 89 1007.1
20260507053041 55 52 0.0 3.5 0.00 0.00 0.00 89 1007.0
20260507052525 55 0 0.0 3.5 0.00 0.00 0.00 89 1006.9
20260507052029 55 107 0.0 2.6 0.00 0.00 0.00 89 1006.9
20260507051542 55 0 0.0 2.6 0.00 0.00 0.00 89 1006.6
20260507051029 55 96 0.0 4.3 0.00 0.00 0.00 89 1006.7
20260507050529 55 0 0.0 4.3 0.00 0.00 0.00 89 1006.6
20260507050047 56 177 0.0 3.5 0.00 0.00 0.00 89 1006.8
20260507045530 56 57 0.9 2.6 0.00 0.00 0.00 89 1007.0
20260507045027 56 205 0.0 2.6 0.00 0.00 0.00 90 1007.0
20260507044556 56 0 0.0 2.6 0.00 0.00 0.00 89 1007.0
20260507044032 57 0 0.0 5.2 0.00 0.00 0.00 89 1006.8
20260507043528 58 45 0.9 5.2 0.00 0.00 0.00 90 1006.7
20260507043042 58 51 0.9 3.5 0.00 0.00 0.00 91 1006.6
20260507042526 59 69 0.0 3.5 0.00 0.00 0.00 92 1006.8
20260507042031 59 0 0.9 3.5 0.00 0.00 0.00 92 1006.8
20260507041545 59 96 0.0 2.6 0.00 0.00 0.00 92 1006.7
20260507041029 59 5 0.0 2.6 0.00 0.00 0.00 92 1006.7
20260507040528 59 15 0.0 1.7 0.00 0.00 0.00 92 1006.8
20260507040045 59 0 0.0 3.5 0.00 0.00 0.00 91 1006.9
20260507035531 59 0 0.0 3.5 0.00 0.00 0.00 91 1006.8
20260507035029 59 63 0.0 3.5 0.00 0.00 0.00 91 1006.7
20260507034546 59 187 0.9 3.5 0.00 0.00 0.00 91 1006.4
20260507034029 59 162 0.0 3.5 0.00 0.00 0.00 91 1006.6
20260507033529 59 0 0.9 7.0 0.00 0.00 0.00 91 1006.3
20260507033057 59 144 1.7 7.0 0.00 0.00 0.00 92 1006.7
20260507032530 59 0 0.0 4.3 0.00 0.00 0.00 92 1006.5
20260507032038 59 147 0.9 4.3 0.00 0.00 0.00 92 1006.3
20260507031554 59 0 0.9 4.3 0.00 0.00 0.00 92 1006.0
20260507031026 59 167 0.9 4.3 0.00 0.00 0.00 92 1005.9
20260507030530 59 175 0.9 4.3 0.00 0.00 0.00 92 1005.8
20260507025529 59 178 0.9 5.2 0.00 0.00 0.00 92 1005.6
20260507025029 59 119 0.0 5.2 0.00 0.00 0.00 92 1005.7
20260507024601 59 0 0.0 6.1 0.00 0.00 0.00 92 1005.8
20260507024030 59 181 0.9 6.1 0.00 0.00 0.00 92 1005.8
20260507023528 59 175 0.9 5.2 0.00 0.00 0.00 92 1005.9
20260507023044 59 127 0.0 5.2 0.00 0.00 0.00 92 1006.0
20260507022529 59 5 0.9 4.3 0.00 0.00 0.00 92 1005.9
20260507022029 59 126 0.0 4.3 0.00 0.00 0.00 92 1006.0
20260507021552 59 174 0.9 6.1 0.00 0.00 0.00 92 1006.0
20260507021033 59 151 0.9 6.1 0.00 0.00 0.00 91 1006.0
20260507020530 59 152 0.9 5.2 0.00 0.00 0.00 92 1005.9
20260507020054 59 151 0.9 5.2 0.00 0.00 0.00 91 1005.9
20260507015530 59 0 0.9 3.5 0.00 0.00 0.00 91 1005.9
20260507015029 59 0 0.9 3.5 0.00 0.00 0.00 91 1006.0
20260507014552 59 228 0.9 5.2 0.00 0.00 0.00 91 1006.1
20260507014030 59 22 0.0 5.2 0.00 0.00 0.00 91 1006.0
20260507013530 59 207 0.9 3.5 0.00 0.00 0.00 91 1006.1
20260507013043 59 67 0.9 6.1 0.00 0.00 0.00 91 1006.0
20260507012532 59 305 1.7 7.0 0.00 0.00 0.00 91 1006.0
20260507012028 59 154 1.7 7.0 0.00 0.00 0.00 91 1006.2
20260507011549 59 192 0.9 6.1 0.00 0.00 0.00 91 1006.1
20260507011031 59 134 0.9 6.1 0.00 0.00 0.00 91 1006.2
20260507010529 59 153 0.0 6.1 0.00 0.00 0.00 91 1006.2
20260507010046 59 161 0.9 6.1 0.00 0.00 0.00 91 1006.2
20260507005530 59 153 0.9 3.5 0.00 0.00 0.00 91 1006.3